| time (UTC) | temp F | wind direction | speed knots | gust knots | rain 1hr in | rain 24hr in | rain mn in | humidity % | barometer mb |
| 20260903220107 | 79 | 23 | 4.3 | 12.2 | 0.00 | 0.00 | 0.00 | 21 | 1019.6 |
| 20260903214613 | 80 | 97 | 2.6 | 8.7 | 0.00 | 0.00 | 0.00 | 21 | 1019.6 |
| 20260903213117 | 80 | 101 | 5.2 | 10.4 | 0.00 | 0.00 | 0.00 | 21 | 1019.6 |
| 20260903211610 | 80 | 101 | 3.5 | 12.2 | 0.00 | 0.00 | 0.00 | 21 | 1019.8 |
| 20260903210129 | 81 | 352 | 2.6 | 7.8 | 0.00 | 0.00 | 0.00 | 21 | 1019.9 |
| 20260903204606 | 80 | 19 | 4.3 | 9.6 | 0.00 | 0.00 | 0.00 | 22 | 1020.1 |
| 20260903203115 | 80 | 70 | 4.3 | 8.7 | 0.00 | 0.00 | 0.00 | 22 | 1020.1 |
| 20260903201606 | 80 | 93 | 3.5 | 11.3 | 0.00 | 0.00 | 0.00 | 22 | 1020.3 |
| 20260903200104 | 80 | 27 | 3.5 | 7.8 | 0.00 | 0.00 | 0.00 | 23 | 1020.3 |
| 20260903194602 | 78 | 69 | 3.5 | 13.9 | 0.00 | 0.00 | 0.00 | 23 | 1020.4 |
| 20260903193106 | 79 | 64 | 2.6 | 13.9 | 0.00 | 0.00 | 0.00 | 23 | 1020.4 |
| 20260903191603 | 79 | 51 | 1.7 | 11.3 | 0.00 | 0.00 | 0.00 | 23 | 1020.6 |
| 20260903190107 | 78 | 6 | 4.3 | 13.0 | 0.00 | 0.00 | 0.00 | 23 | 1020.6 |
| 20260903184606 | 78 | 43 | 3.5 | 9.6 | 0.00 | 0.00 | 0.00 | 24 | 1020.8 |
| 20260903183106 | 77 | 25 | 4.3 | 10.4 | 0.00 | 0.00 | 0.00 | 25 | 1020.9 |
| 20260903181609 | 76 | 90 | 5.2 | 11.3 | 0.00 | 0.00 | 0.00 | 26 | 1021.2 |
| 20260903180107 | 77 | 84 | 6.1 | 15.6 | 0.00 | 0.00 | 0.00 | 25 | 1021.4 |
| 20260903174607 | 80 | 46 | 4.3 | 7.8 | 0.00 | 0.00 | 0.00 | 23 | 1021.4 |
| 20260903173104 | 80 | 231 | 0.9 | 6.1 | 0.00 | 0.00 | 0.00 | 21 | 1021.4 |
| 20260903171614 | 79 | 239 | 1.7 | 9.6 | 0.00 | 0.00 | 0.00 | 22 | 1021.5 |
| 20260903170107 | 79 | 210 | 0.9 | 8.7 | 0.00 | 0.00 | 0.00 | 22 | 1021.7 |
| 20260903164623 | 77 | 38 | 1.7 | 9.6 | 0.00 | 0.00 | 0.00 | 23 | 1021.6 |
| 20260903163105 | 77 | 20 | 2.6 | 7.8 | 0.00 | 0.00 | 0.00 | 23 | 1021.7 |
| 20260903161602 | 78 | 187 | 1.7 | 9.6 | 0.00 | 0.00 | 0.00 | 23 | 1021.5 |
| 20260903160129 | 76 | 0 | 1.7 | 12.2 | 0.00 | 0.00 | 0.00 | 26 | 1021.6 |
| 20260903154611 | 75 | 117 | 2.6 | 11.3 | 0.00 | 0.00 | 0.00 | 27 | 1021.7 |
| 20260903153108 | 74 | 274 | 4.3 | 9.6 | 0.00 | 0.00 | 0.00 | 27 | 1021.7 |
| 20260903151603 | 74 | 168 | 1.7 | 8.7 | 0.00 | 0.00 | 0.00 | 28 | 1021.7 |
| 20260903150108 | 73 | 238 | 3.5 | 8.7 | 0.00 | 0.00 | 0.00 | 30 | 1021.9 |
| 20260903144607 | 72 | 190 | 4.3 | 10.4 | 0.00 | 0.00 | 0.00 | 31 | 1021.7 |
| 20260903143112 | 71 | 101 | 4.3 | 9.6 | 0.00 | 0.00 | 0.00 | 32 | 1021.6 |
| 20260903141614 | 71 | 163 | 5.2 | 11.3 | 0.00 | 0.00 | 0.00 | 33 | 1021.6 |
| 20260903140109 | 70 | 127 | 3.5 | 10.4 | 0.00 | 0.00 | 0.00 | 34 | 1021.7 |
| 20260903134605 | 69 | 157 | 2.6 | 8.7 | 0.00 | 0.00 | 0.00 | 34 | 1021.6 |
| 20260903133108 | 69 | 120 | 1.7 | 9.6 | 0.00 | 0.00 | 0.00 | 35 | 1021.3 |
| 20260903131607 | 68 | 157 | 2.6 | 8.7 | 0.00 | 0.00 | 0.00 | 36 | 1021.3 |
| 20260903130105 | 66 | 188 | 0.9 | 5.2 | 0.00 | 0.00 | 0.00 | 37 | 1021.2 |
| 20260903124607 | 64 | 181 | 2.6 | 6.1 | 0.00 | 0.00 | 0.00 | 39 | 1021.0 |
| 20260903123107 | 64 | 180 | 2.6 | 8.7 | 0.00 | 0.00 | 0.00 | 40 | 1020.8 |
| 20260903121606 | 63 | 196 | 2.6 | 6.1 | 0.00 | 0.00 | 0.00 | 40 | 1020.7 |
| 20260903120107 | 63 | 203 | 1.7 | 7.0 | 0.00 | 0.00 | 0.00 | 41 | 1020.7 |
| 20260903114607 | 63 | 0 | 1.7 | 4.3 | 0.00 | 0.00 | 0.00 | 42 | 1020.5 |
| 20260903113103 | 62 | 218 | 0.0 | 3.5 | 0.00 | 0.00 | 0.00 | 43 | 1020.5 |
| 20260903111604 | 62 | 0 | 0.0 | 3.5 | 0.00 | 0.00 | 0.00 | 45 | 1020.4 |
| 20260903110106 | 62 | 202 | 1.7 | 7.8 | 0.00 | 0.00 | 0.00 | 44 | 1020.5 |
| 20260903104606 | 61 | 213 | 1.7 | 4.3 | 0.00 | 0.00 | 0.00 | 47 | 1020.6 |
| 20260903103106 | 60 | 243 | 0.0 | 3.5 | 0.00 | 0.00 | 0.00 | 47 | 1020.6 |
| 20260903101611 | 61 | 221 | 2.6 | 5.2 | 0.00 | 0.00 | 0.00 | 46 | 1020.5 |
| 20260903100104 | 61 | 0 | 0.0 | 4.3 | 0.00 | 0.00 | 0.00 | 46 | 1020.6 |
| 20260903094612 | 63 | 198 | 4.3 | 10.4 | 0.00 | 0.00 | 0.00 | 44 | 1020.7 |
| 20260903093114 | 60 | 191 | 1.7 | 4.3 | 0.00 | 0.00 | 0.00 | 46 | 1020.8 |
| 20260903091603 | 62 | 210 | 2.6 | 7.8 | 0.00 | 0.00 | 0.00 | 43 | 1020.9 |
| 20260903084601 | 62 | 200 | 1.7 | 7.8 | 0.00 | 0.00 | 0.00 | 42 | 1020.8 |
| 20260903083107 | 63 | 237 | 0.9 | 4.3 | 0.00 | 0.00 | 0.00 | 40 | 1020.8 |
| 20260903081603 | 62 | 186 | 0.9 | 4.3 | 0.00 | 0.00 | 0.00 | 40 | 1020.7 |
| 20260903080107 | 61 | 0 | 0.0 | 0.9 | 0.00 | 0.00 | 0.00 | 41 | 1020.8 |
| 20260903074608 | 63 | 0 | 0.0 | 1.7 | 0.00 | 0.00 | 0.00 | 41 | 1020.9 |
| 20260903073107 | 63 | 0 | 0.9 | 3.5 | 0.00 | 0.00 | 0.00 | 40 | 1020.8 |
| 20260903071611 | 64 | 253 | 0.0 | 1.7 | 0.00 | 0.00 | 0.00 | 41 | 1020.9 |
| 20260903070112 | 65 | 214 | 0.9 | 3.5 | 0.00 | 0.00 | 0.00 | 41 | 1021.0 |
| 20260903064608 | 64 | 0 | 0.0 | 0.9 | 0.00 | 0.00 | 0.00 | 42 | 1021.2 |
| 20260903063127 | 64 | 0 | 0.0 | 0.9 | 0.00 | 0.00 | 0.00 | 43 | 1021.4 |
| 20260903061608 | 64 | 0 | 0.0 | 0.0 | 0.00 | 0.00 | 0.00 | 43 | 1021.3 |
| 20260903060118 | 64 | 0 | 0.0 | 0.9 | 0.00 | 0.00 | 0.00 | 43 | 1021.1 |
| 20260903054611 | 64 | 0 | 0.0 | 0.0 | 0.00 | 0.00 | 0.00 | 44 | 1021.1 |
| 20260903053105 | 64 | 0 | 0.0 | 0.9 | 0.00 | 0.00 | 0.00 | 45 | 1021.2 |
| 20260903051602 | 64 | 0 | 0.0 | 2.6 | 0.00 | 0.00 | 0.00 | 44 | 1021.3 |
| 20260903050128 | 64 | 232 | 0.0 | 1.7 | 0.00 | 0.00 | 0.00 | 45 | 1021.3 |
| 20260903044606 | 65 | 0 | 0.0 | 0.9 | 0.00 | 0.00 | 0.00 | 45 | 1021.4 |
| 20260903043100 | 65 | 0 | 0.0 | 0.0 | 0.00 | 0.00 | 0.00 | 45 | 1021.7 |
| 20260903041603 | 65 | 0 | 0.0 | 0.0 | 0.00 | 0.00 | 0.00 | 45 | 1021.7 |
| 20260903040109 | 65 | 264 | 0.0 | 0.9 | 0.00 | 0.00 | 0.00 | 44 | 1021.7 |
| 20260903034603 | 66 | 0 | 0.0 | 0.0 | 0.00 | 0.00 | 0.00 | 43 | 1021.5 |
| 20260903033103 | 67 | 0 | 0.0 | 5.2 | 0.00 | 0.00 | 0.00 | 38 | 1021.4 |
| 20260903031604 | 66 | 122 | 0.0 | 1.7 | 0.00 | 0.00 | 0.00 | 40 | 1021.6 |
| 20260903030108 | 67 | 0 | 0.0 | 0.9 | 0.00 | 0.00 | 0.00 | 40 | 1021.4 |
| 20260903024600 | 69 | 0 | 0.0 | 2.6 | 0.00 | 0.00 | 0.00 | 36 | 1021.5 |
| 20260903023100 | 69 | 0 | 0.9 | 3.5 | 0.00 | 0.00 | 0.00 | 35 | 1021.3 |
| 20260903021609 | 69 | 124 | 1.7 | 5.2 | 0.00 | 0.00 | 0.00 | 36 | 1020.9 |
| 20260903020106 | 69 | 0 | 0.9 | 8.7 | 0.00 | 0.00 | 0.00 | 36 | 1020.8 |
| 20260903014612 | 70 | 0 | 2.6 | 7.8 | 0.00 | 0.00 | 0.00 | 37 | 1020.7 |
| 20260903013104 | 70 | 213 | 5.2 | 10.4 | 0.00 | 0.00 | 0.00 | 37 | 1020.6 |
| 20260903011611 | 71 | 181 | 4.3 | 11.3 | 0.00 | 0.00 | 0.00 | 36 | 1020.4 |
| 20260903010106 | 71 | 153 | 0.9 | 6.1 | 0.00 | 0.00 | 0.00 | 35 | 1020.3 |
| 20260903004603 | 71 | 0 | 0.0 | 3.5 | 0.00 | 0.00 | 0.00 | 38 | 1020.3 |
| 20260903003103 | 72 | 229 | 0.0 | 3.5 | 0.00 | 0.00 | 0.00 | 38 | 1020.4 |
| 20260903001607 | 72 | 195 | 1.7 | 5.2 | 0.00 | 0.00 | 0.00 | 35 | 1020.7 |
| 20260903000107 | 72 | 236 | 1.7 | 5.2 | 0.00 | 0.00 | 0.00 | 35 | 1020.5 |
| 20260902234606 | 73 | 186 | 0.0 | 2.6 | 0.00 | 0.00 | 0.00 | 38 | 1020.6 |
| 20260902233102 | 72 | 321 | 0.0 | 3.5 | 0.00 | 0.00 | 0.00 | 38 | 1020.9 |
| 20260902231609 | 70 | 285 | 2.6 | 10.4 | 0.00 | 0.00 | 0.00 | 39 | 1021.1 |
| 20260902230109 | 69 | 228 | 2.6 | 7.8 | 0.00 | 0.00 | 0.00 | 39 | 1021.8 |
| 20260902224606 | 73 | 218 | 5.2 | 16.5 | 0.00 | 0.00 | 0.00 | 34 | 1021.7 |
| 20260902223109 | 77 | 209 | 1.7 | 7.8 | 0.00 | 0.00 | 0.00 | 25 | 1020.8 |
| 20260902221602 | 78 | 79 | 3.5 | 7.0 | 0.00 | 0.00 | 0.00 | 24 | 1020.3 |